world map with TIF marked

TIF - Airport

This information may not be accurate or current and is not valid for navigation or flight planning. No warranty of fitness for any purpose is made or implied.

flag of Saudi Arabia

Donate via PayPal

Additional information is available on the NEW Great Circle Mapper

Location
City:  Ta'if, Saudi Arabia
Near (Alt.):Taif
Name:Taif Airport
ICAO / IATA:OETF / TIF

Details
Type:Airport (Aerodrome, Airfield)
Use:Public/Civil
Latitude:21°29'00"N (21.483333)
Longitude:40°32'40"E (40.544444)
Elevation:4848 ft (1478 m)
Runways:2
Longest:12254 × 148 ft (3735 × 45 m)

Time
Timezone:UTC+3 (DST+5)
Local Time:

Weather
METAR:OETF  101600Z 27008KT CAVOK 20/12 Q1022 NOSIG
TAF:OETF  101700Z 1018/1112 VRB03KT 8000 FEW030 BECMG 1106/1108 28014KT

Related Locations
Nearby:
Farthest:UOA: 12394 mi / 19946 km
Mururoa Atoll [Mururoa Airstrip], PF

Find:

   beyond  
but within

Other Information
Maps:
Sources:

  


 


Great Circle Mapper   Great Circle Mapper
Great Circle Mapper FAQ   Great Circle Mapper FAQ
  Karl's Home Page
KLSē   KLSē Home
   GC on Facebook
Airlines of the World   Airlines of the World
Donate via PayPal


Copyright © 2004-2016, Karl L. Swartz. All rights reserved.
All trademarks mentioned herein belong to their respective owners.

Please see credits for attribution and copyright information.

Karl Swartz <karl@kls2.com>
  Powered by FreeBSD
Valid HTML 4.01!
Labeled with ICRA
hCard Microformat
Geo Microformat